Flag for Canada Weather past 2 weeks in Dieppe, New Brunswick, Canada

Now
55 °F

Rain. Fog.


Feels Like: 53 °F
Forecast: 58 / 70 °F
Wind: 8 mph from South

Location: Moncton

Current Time: May 26, 2015 at 9:46:24 AM

Latest Report: May 26, 2015 at 9:02 AM


Visibility: 1 mi

Pressure: 30.05 "Hg

Humidity: 100%

Dew point: 55 °F

Location of DieppeLocation

Historic Weather in Dieppe — Graph

°F

Dieppe temperature yesterday

Maximum temperature yesterday: 84 °F (at 3:00 PM)
Minimum temperature yesterday: 45 °F (at 5:00 AM)
Average temperature yesterday: 66 °F

Past Weeks' High & Low Weather Summary

 TemperatureHumidityPressure
High84 °F (May 25, 3:00 PM)100% (May 12, 12:00 PM)30.34 "Hg (May 12, 12:00 PM)
Low34 °F (May 14, 4:00 AM)19% (May 16, 3:00 PM)29.41 "Hg (May 20, 5:00 PM)
Average53 °F63%29.96 "Hg
* Reported May 11 8:00 AM — May 26 8:00 AM, Dieppe, Weather by CustomWeather, © 2015

Note: Actual official high and low records may vary slightly from our data, if they occured in-between our weather recording intervals... More about our weather records

Advertising

Dieppe weather history for previous 24 hours

 ConditionsComfort  
Time TempWeatherWind HumidityBarometerVisibility
8:00 AM
Tue, May 26
55 °FRain. Fog.10 mph94%30.06 "Hg3 mi
7:00 AM54 °FLight rain. Fog.8 mph88%30.07 "Hg5 mi
6:00 AM57 °FLight rain. Mostly cloudy.7 mph88%30.09 "Hg8 mi
5:00 AM57 °FLight rain. Mostly cloudy.7 mph77%30.09 "Hg12 mi
4:00 AM55 °FOvercast.8 mph77%30.09 "Hg15 mi
3:00 AM55 °FOvercast.5 mph77%30.09 "Hg15 mi
2:00 AM55 °FOvercast.5 mph77%30.08 "Hg15 mi
1:00 AM57 °FOvercast.6 mph67%30.09 "Hg15 mi
12:00 AM57 °FPassing clouds.9 mph67%30.09 "Hg15 mi
11:00 PM
Mon, May 25
57 °FPassing clouds.6 mph67%30.09 "Hg15 mi
10:00 PM61 °FPassing clouds.6 mph59%30.08 "Hg15 mi
9:00 PM70 °FPartly sunny.10 mph40%30.05 "Hg15 mi
8:00 PM75 °FScattered clouds.16 mph34%30.03 "Hg15 mi
7:00 PM79 °FPartly sunny.16 mph30%30.01 "Hg15 mi
6:00 PM81 °FPartly sunny.24 mph26%30.00 "Hg15 mi
5:00 PM82 °FScattered clouds.22 mph23%30.00 "Hg15 mi
4:00 PM84 °FScattered clouds.25 mph25%29.99 "Hg15 mi
3:00 PM84 °FScattered clouds.21 mph22%29.99 "Hg15 mi
2:00 PM82 °FScattered clouds.24 mph25%30.01 "Hg15 mi
1:00 PM81 °FPassing clouds.14 mph32%30.04 "Hg15 mi
12:00 PM77 °FPassing clouds.12 mph36%30.06 "Hg15 mi
11:00 AM75 °FPassing clouds.14 mph36%30.08 "Hg15 mi
10:00 AM70 °FPartly sunny.13 mph50%30.08 "Hg15 mi
9:00 AM64 °FPassing clouds.12 mph60%30.08 "Hg15 mi
Weather by CustomWeather, © 2015

See weather overviewHow to use our weather pages